TimeEDT,TemperatureF,Dew PointF,Humidity,Sea Level PressureIn,VisibilityMPH,Wind Direction,Wind SpeedMPH,Gust SpeedMPH,PrecipitationIn,Events,Conditions,WindDirDegrees,DateUTC
12:53 AM,57.0,50.0,77,30.15,10.0,ENE,3.5,-,N/A,,Clear,70,2013-09-28 04:53:00
1:53 AM,57.0,50.0,77,30.16,10.0,Calm,Calm,-,N/A,,Clear,0,2013-09-28 05:53:00
2:53 AM,55.0,48.9,80,30.16,10.0,Calm,Calm,-,N/A,,Clear,0,2013-09-28 06:53:00
3:53 AM,52.0,48.9,89,30.15,10.0,Calm,Calm,-,N/A,,Clear,0,2013-09-28 07:53:00
4:53 AM,51.1,48.9,92,30.16,10.0,Calm,Calm,-,N/A,,Clear,0,2013-09-28 08:53:00
5:53 AM,51.1,50.0,96,30.17,10.0,Calm,Calm,-,N/A,,Clear,0,2013-09-28 09:53:00
6:53 AM,50.0,48.0,93,30.18,10.0,Calm,Calm,-,N/A,,Clear,0,2013-09-28 10:53:00
7:53 AM,50.0,48.0,93,30.20,10.0,Calm,Calm,-,N/A,,Clear,0,2013-09-28 11:53:00
8:53 AM,57.0,53.1,87,30.21,10.0,East,3.5,-,N/A,,Clear,100,2013-09-28 12:53:00
9:53 AM,63.0,54.0,72,30.21,10.0,SE,4.6,-,N/A,,Clear,130,2013-09-28 13:53:00
10:53 AM,68.0,54.0,61,30.21,10.0,Variable,3.5,-,N/A,,Clear,0,2013-09-28 14:53:00
11:53 AM,71.1,54.0,55,30.20,10.0,SSE,3.5,-,N/A,,Clear,150,2013-09-28 15:53:00
12:53 PM,73.9,52.0,46,30.19,10.0,Variable,5.8,-,N/A,,Clear,0,2013-09-28 16:53:00
1:53 PM,75.9,50.0,40,30.16,10.0,Calm,Calm,-,N/A,,Clear,0,2013-09-28 17:53:00
2:53 PM,75.9,50.0,40,30.13,10.0,WSW,3.5,-,N/A,,Clear,250,2013-09-28 18:53:00
3:53 PM,75.9,51.1,42,30.12,10.0,SSE,6.9,-,N/A,,Clear,150,2013-09-28 19:53:00
4:53 PM,75.9,48.9,38,30.10,10.0,SSE,8.1,-,N/A,,Clear,150,2013-09-28 20:53:00
5:53 PM,75.9,50.0,40,30.09,10.0,SSE,6.9,-,N/A,,Clear,150,2013-09-28 21:53:00
6:53 PM,73.0,48.9,42,30.10,10.0,South,5.8,-,N/A,,Clear,170,2013-09-28 22:53:00
7:53 PM,70.0,53.1,55,30.10,10.0,SE,8.1,-,N/A,,Clear,140,2013-09-28 23:53:00
8:53 PM,69.1,53.1,57,30.10,10.0,SSE,4.6,-,N/A,,Clear,160,2013-09-29 00:53:00
9:53 PM,64.0,53.1,67,30.10,10.0,ESE,4.6,-,N/A,,Clear,110,2013-09-29 01:53:00
10:53 PM,63.0,53.1,70,30.09,10.0,SE,4.6,-,N/A,,Clear,130,2013-09-29 02:53:00
11:53 PM,59.0,53.1,81,30.08,10.0,SE,3.5,-,N/A,,Clear,130,2013-09-29 03:53:00